Meeandah, Australia

1:13 AM AEST on June 25, 2017 (GMT +1000)
Meeandah

Weather History for 94578 - July, 2013

Change the Weather History Date:

Monday, July 8, 2013

  Actual Average Record
Temperature  
Mean Temperature 59 °F -  
Max Temperature 68 °F 70 °F - ()
Min Temperature 50 °F 49 °F - ()
Degree Days  
Heating Degree Days 6    
Growing Degree Days 9 (Base 50)    
Moisture  
Dew Point 49 °F    
Average Humidity 65    
Maximum Humidity 88    
Minimum Humidity 43    
Precipitation  
Precipitation 0.00 in 0.08 in - ()
Sea Level Pressure  
Sea Level Pressure 30.37 in    
Wind  
Wind Speed 7 mph ()    
Max Wind Speed 9 mph    
Max Gust Speed -    
Visibility 7.8 miles    
Events      
T = Trace of Precipitation, MM = Missing Value Source: Averaged Metar Reports

Daily Weather History Graph

Daily Weather History Graph

Search for Another Location

Airport or City:

Trip Planner

Search our weather history database for the weather conditions in past years. The results will help you decide how hot, cold, wet, or windy it might be!

Date:

Astronomy

Jul. 08, 2013 Rise Set
Actual Time 6:38 AM AEST 5:07 PM AEST
Civil Twilight 6:12 AM AEST 5:32 PM AEST
Nautical Twilight 5:43 AM AEST 6:01 PM AEST
Astronomical Twilight 5:15 AM AEST 6:30 PM AEST
Moon 6:10 AM AEST (7/8) 5:10 PM AEST (7/8)
Length of Visible Light 11h 20m
Length of Day
10h 29m
Waning Crescent, 0% of the Moon is Illuminated
Jul 8
Waning Crescent
Jul 8
New
Jul 16
First Quarter
Jul 23
Full
Jul 30
Last Quarter

Hourly Weather History & Observations

Time (AEST) Temp. Dew Point Humidity Pressure Visibility Wind Dir Wind Speed Gust Speed Precip Events Conditions
12:00 AM 59 °F 48 °F 58% 30.37 in 16 mi South 5.8 mph - -   Partly Cloudy
12:00 AM 59.0 °F 48.2 °F 67% 30.36 in 6.2 mi South 5.8 mph - N/A   Mostly Cloudy
12:30 AM 59.0 °F 48.2 °F 67% 30.36 in 6.2 mi South 6.9 mph - N/A   Mostly Cloudy
1:00 AM 59 °F 48 °F 59% 30.37 in - South 8.1 mph - -  
1:00 AM 59.0 °F 48.2 °F 67% 30.36 in 6.2 mi South 8.1 mph - N/A   Mostly Cloudy
1:30 AM 59.0 °F 48.2 °F 67% 30.36 in 6.2 mi South 6.9 mph - N/A   Mostly Cloudy
2:00 AM 57.2 °F 48.2 °F 72% 30.33 in 6.2 mi South 6.9 mph - N/A   Mostly Cloudy
2:30 AM 57.2 °F 48.2 °F 72% 30.33 in 6.2 mi South 8.1 mph - N/A   Mostly Cloudy
3:00 AM 57 °F 48 °F 63% 30.35 in 19 mi SSW 6.9 mph - -   Partly Cloudy
3:00 AM 57.2 °F 48.2 °F 72% 30.33 in 6.2 mi SSW 6.9 mph - N/A   Mostly Cloudy
3:30 AM 55.4 °F 50.0 °F 82% 30.36 in 6.2 mi SSW 8.1 mph - N/A   Mostly Cloudy
4:00 AM 54 °F 50 °F 83% 30.36 in - SSW 8.1 mph - -  
4:00 AM 55.4 °F 50.0 °F 82% 30.36 in 6.2 mi SSW 8.1 mph - N/A   Mostly Cloudy
4:30 AM 53.6 °F 50.0 °F 88% 30.36 in 6.2 mi SSW 8.1 mph - N/A   Mostly Cloudy
5:00 AM 53.6 °F 48.2 °F 82% 30.36 in 6.2 mi SSW 9.2 mph - N/A   Mostly Cloudy
5:30 AM 53.6 °F 48.2 °F 82% 30.36 in 6.2 mi SSW 8.1 mph - N/A   Mostly Cloudy
6:00 AM 53.6 °F 48.2 °F 82% 30.36 in 6.2 mi SSW 8.1 mph - N/A   Mostly Cloudy
6:30 AM 51.8 °F 48.2 °F 88% 30.39 in 6.2 mi SSW 6.9 mph - N/A   Mostly Cloudy
7:00 AM 51 °F 48 °F 86% 30.40 in - SSW 6.9 mph - -  
7:00 AM 51.8 °F 48.2 °F 88% 30.39 in 6.2 mi SSW 6.9 mph - N/A   Scattered Clouds
7:30 AM 51.8 °F 48.2 °F 88% 30.39 in 6.2 mi SSW 8.1 mph - N/A   Scattered Clouds
8:00 AM 55.4 °F 50.0 °F 82% 30.42 in 6.2 mi SSW 9.2 mph - N/A   Scattered Clouds
8:30 AM 59.0 °F 48.2 °F 67% 30.42 in 6.2 mi SSW 6.9 mph - N/A   Scattered Clouds
9:00 AM 61 °F 49 °F 54% 30.43 in 19 mi South 8.1 mph - -   Partly Cloudy
9:00 AM 60.8 °F 48.2 °F 63% 30.42 in 6.2 mi South 8.1 mph - N/A   Mostly Cloudy
9:30 AM 62.6 °F 50.0 °F 63% 30.42 in 6.2 mi South 6.9 mph - N/A   Scattered Clouds
10:00 AM 64 °F 49 °F 48% 30.43 in - South 5.8 mph - -  
10:00 AM 64.4 °F 48.2 °F 56% 30.42 in 6.2 mi South 5.8 mph - N/A   Scattered Clouds
10:30 AM 66.2 °F 48.2 °F 52% 30.42 in 6.2 mi SE 8.1 mph - N/A   Scattered Clouds
11:00 AM 66.2 °F 48.2 °F 52% 30.42 in 6.2 mi ESE 9.2 mph - N/A   Mostly Cloudy
11:30 AM 68.0 °F 48.2 °F 49% 30.39 in 6.2 mi SE 8.1 mph - N/A   Scattered Clouds
12:00 PM 66 °F 49 °F 43% 30.39 in 19 mi ESE 9.2 mph - -   Partly Cloudy
12:00 PM 66.2 °F 48.2 °F 52% 30.39 in 6.2 mi ESE 9.2 mph - N/A   Scattered Clouds
12:30 PM 66.2 °F 50.0 °F 56% 30.36 in 6.2 mi East 8.1 mph - N/A   Scattered Clouds
1:00 PM 67 °F 50 °F 45% 30.37 in - East 9.2 mph - -  
1:00 PM 66.2 °F 50.0 °F 56% 30.36 in 6.2 mi East 9.2 mph - N/A   Scattered Clouds
1:30 PM 66.2 °F 48.2 °F 52% 30.36 in 6.2 mi ESE 8.1 mph - N/A   Scattered Clouds
2:00 PM 66.2 °F 48.2 °F 52% 30.33 in 6.2 mi ESE 8.1 mph - N/A   Scattered Clouds
2:30 PM 66.2 °F 48.2 °F 52% 30.33 in 6.2 mi ESE 8.1 mph - N/A   Partly Cloudy
3:00 PM 66 °F 49 °F 43% 30.35 in 19 mi East 8.1 mph - -   Partly Cloudy
3:00 PM 66.2 °F 48.2 °F 52% 30.33 in 6.2 mi East 8.1 mph - N/A   Partly Cloudy
3:30 PM 64.4 °F 48.2 °F 56% 30.33 in 6.2 mi ESE 8.1 mph - N/A   Partly Cloudy
4:00 PM 65 °F 48 °F 44% 30.35 in - ESE 6.9 mph - -  
4:00 PM 64.4 °F 48.2 °F 56% 30.33 in - ESE 6.9 mph - N/A   Clear
4:30 PM 64.4 °F 48.2 °F 56% 30.36 in - ESE 6.9 mph - N/A   Clear
5:00 PM 62.6 °F 48.2 °F 59% 30.36 in 6.2 mi ESE 6.9 mph - N/A   Partly Cloudy
5:30 PM 62.6 °F 48.2 °F 59% 30.36 in 6.2 mi ESE 5.8 mph - N/A   Partly Cloudy
6:00 PM 62 °F 49 °F 54% 30.36 in 19 mi ESE 6.9 mph - -   Partly Cloudy
6:00 PM 62.6 °F 50.0 °F 63% 30.36 in 6.2 mi ESE 6.9 mph - N/A   Partly Cloudy
6:30 PM 62.6 °F 50.0 °F 63% 30.36 in 6.2 mi ESE 5.8 mph - N/A   Partly Cloudy
7:00 PM 62 °F 51 °F 58% 30.38 in - SE 5.8 mph - -  
7:00 PM 62.6 °F 51.8 °F 68% 30.36 in 6.2 mi SE 5.8 mph - N/A   Partly Cloudy
7:30 PM 60.8 °F 50.0 °F 68% 30.36 in 6.2 mi SE 5.8 mph - N/A   Partly Cloudy
8:00 PM 60.8 °F 50.0 °F 68% 30.39 in 6.2 mi SE 5.8 mph - N/A   Partly Cloudy
8:30 PM 59.0 °F 51.8 °F 77% 30.39 in 6.2 mi SE 4.6 mph - N/A   Partly Cloudy
9:00 PM 58 °F 50 °F 67% 30.40 in 19 mi South 5.8 mph - -   Partly Cloudy
9:00 PM 57.2 °F 50.0 °F 77% 30.39 in 6.2 mi South 5.8 mph - N/A   Partly Cloudy
9:30 PM 59.0 °F 50.0 °F 72% 30.39 in 6.2 mi SSE 4.6 mph - N/A   Partly Cloudy
10:00 PM 58 °F 49 °F 65% 30.40 in - South 6.9 mph - -  
10:00 PM 57.2 °F 50.0 °F 77% 30.39 in 6.2 mi South 6.9 mph - N/A   Partly Cloudy
10:30 PM 57.2 °F 48.2 °F 72% 30.39 in 6.2 mi South 6.9 mph - N/A   Scattered Clouds
11:00 PM 55.4 °F 50.0 °F 82% 30.39 in 6.2 mi South 9.2 mph - N/A   Scattered Clouds
11:30 PM 57.2 °F 48.2 °F 72% 30.39 in 6.2 mi South 5.8 mph - N/A   Partly Cloudy